TimeCDT,TemperatureF,Dew PointF,Humidity,Sea Level PressureIn,VisibilityMPH,Wind Direction,Wind SpeedMPH,Gust SpeedMPH,PrecipitationIn,Events,Conditions,WindDirDegrees,DateUTC
12:53 AM,66.9,64.0,90,29.98,6.0,Calm,Calm,-,N/A,,Clear,0,2013-09-28 05:53:00
1:53 AM,66.9,64.0,90,29.97,4.0,Calm,Calm,-,N/A,,Clear,0,2013-09-28 06:53:00
2:53 AM,66.9,64.9,93,29.97,4.0,Calm,Calm,-,N/A,,Clear,0,2013-09-28 07:53:00
3:53 AM,68.0,66.0,93,29.97,4.0,Calm,Calm,-,N/A,,Clear,0,2013-09-28 08:53:00
4:14 AM,68.0,64.4,88,29.98,2.5,Calm,Calm,-,N/A,,Clear,0,2013-09-28 09:14:00
4:21 AM,68.0,64.4,88,29.98,3.0,Calm,Calm,-,N/A,,Clear,0,2013-09-28 09:21:00
4:28 AM,68.0,64.4,88,29.98,1.5,Calm,Calm,-,N/A,,Clear,0,2013-09-28 09:28:00
4:38 AM,68.0,64.4,88,29.98,0.8,Calm,Calm,-,N/A,,Clear,0,2013-09-28 09:38:00
4:45 AM,68.0,66.2,94,29.98,1.5,Calm,Calm,-,N/A,,Clear,0,2013-09-28 09:45:00
4:53 AM,68.0,66.0,93,29.98,2.0,Calm,Calm,-,N/A,,Clear,0,2013-09-28 09:53:00
5:05 AM,68.0,64.4,88,29.99,0.8,Calm,Calm,-,N/A,,Clear,0,2013-09-28 10:05:00
5:29 AM,66.2,64.4,94,30.00,1.8,Calm,Calm,-,N/A,,Mostly Cloudy,0,2013-09-28 10:29:00
5:34 AM,66.2,64.4,94,30.00,3.0,Calm,Calm,-,N/A,,Mostly Cloudy,0,2013-09-28 10:34:00
5:53 AM,69.1,66.0,90,30.00,4.0,Calm,Calm,-,N/A,,Mostly Cloudy,0,2013-09-28 10:53:00
6:28 AM,66.2,64.4,94,30.02,1.5,Calm,Calm,-,N/A,,Scattered Clouds,0,2013-09-28 11:28:00
6:53 AM,66.9,64.0,90,30.02,0.5,Calm,Calm,-,N/A,Fog,Fog,0,2013-09-28 11:53:00
7:16 AM,66.2,64.4,94,30.03,0.2,Calm,Calm,-,N/A,Fog,Fog,0,2013-09-28 12:16:00
7:25 AM,66.2,64.4,94,30.03,1.0,Calm,Calm,-,N/A,,Clear,0,2013-09-28 12:25:00
7:47 AM,68.0,64.4,88,30.04,3.0,Calm,Calm,-,N/A,,Clear,0,2013-09-28 12:47:00
7:48 AM,69.1,66.0,90,30.04,3.0,Calm,Calm,-,N/A,,Clear,0,2013-09-28 12:48:00
8:53 AM,75.9,70.0,82,30.05,8.0,ESE,3.5,-,N/A,,Partly Cloudy,120,2013-09-28 13:53:00
9:53 AM,80.1,69.1,69,30.06,10.0,SE,8.1,-,N/A,,Mostly Cloudy,130,2013-09-28 14:53:00
10:53 AM,84.0,69.1,61,30.07,10.0,Variable,4.6,-,N/A,,Scattered Clouds,0,2013-09-28 15:53:00
11:53 AM,84.0,66.0,55,30.06,10.0,SE,8.1,-,N/A,,Mostly Cloudy,140,2013-09-28 16:53:00
12:53 PM,87.1,66.9,51,30.04,10.0,South,6.9,-,N/A,,Mostly Cloudy,170,2013-09-28 17:53:00
1:53 PM,89.1,66.0,46,30.01,10.0,South,5.8,-,N/A,,Overcast,190,2013-09-28 18:53:00
2:53 PM,88.0,64.9,46,29.99,10.0,South,6.9,-,N/A,,Partly Cloudy,170,2013-09-28 19:53:00
3:53 PM,89.1,64.9,45,29.98,10.0,Variable,5.8,-,N/A,,Clear,0,2013-09-28 20:53:00
4:53 PM,89.1,64.0,43,29.97,10.0,East,5.8,-,N/A,,Partly Cloudy,90,2013-09-28 21:53:00
5:53 PM,87.1,64.9,48,29.97,10.0,SE,6.9,-,N/A,,Scattered Clouds,140,2013-09-28 22:53:00
6:53 PM,80.1,70.0,71,29.97,10.0,Calm,Calm,-,N/A,,Scattered Clouds,0,2013-09-28 23:53:00
7:53 PM,75.0,69.1,82,29.99,10.0,Calm,Calm,-,N/A,,Partly Cloudy,0,2013-09-29 00:53:00
8:53 PM,73.0,69.1,87,30.01,10.0,Calm,Calm,-,N/A,,Clear,0,2013-09-29 01:53:00
9:53 PM,72.0,68.0,87,30.02,10.0,Calm,Calm,-,N/A,,Clear,0,2013-09-29 02:53:00
10:53 PM,72.0,68.0,87,30.02,9.0,Calm,Calm,-,N/A,,Clear,0,2013-09-29 03:53:00
11:53 PM,71.1,66.9,87,30.03,9.0,Calm,Calm,-,N/A,,Clear,0,2013-09-29 04:53:00